SUPERBIRD-C2 (33274 NORAD) Tracking and Keplerian Element Data

This shows tracking and keplerian element data for the satellite.

Feedback or suggestion? Click here.




ElementValue
Catalog33274
NameSUPERBIRD-C2
Epoch Orbit10073
Epoch Day34.71215755
Epoch Year2025
RAAN87.8426
Inclination1.0712
Eccentricity0.000157
Argument of Perigee225.9295
Mean Anonmoly220.641
Mean Motion1.00269792
Decay Rate-2.48E-06
L11 33274U 08038A 25034.71215755 -.00000248 00000+0 00000+0 0 9998
L22 33274 1.0712 87.8426 0001570 225.9295 220.6410 1.00269792100736



Live tracking and technical data element details for SUPERBIRD-C2 (NORAD 33274). SUPERBIRD-C2 can be tracked NOW for your location showing map with azimuth and elevation plus other details from your city location.







IsCatalogInMostPopularTable: catalog: 33274, numindb: 388
Update: records affected: 1



GetName: 33274 SUPERBIRD-C2

Hit Count: updated at: Thu, 15 May 2025 20:05:44 GMT